Location: Newark
(48.6461°N, 4.3644°W)
Time: 18:20:59
(UTC+00:00)

S-56A Canister/Altair - Pass Details

Date: 25 January 2020
Orbit: 633 x 2499 km, 38.9° (Epoch: 17 February)

Event Time Altitude Azimuth Distance (km) Brightness Sun altitude
Rises 22:42:29 0° 253° (WSW) 3,460 - -53.2°
Reaches altitude 10° 22:45:35 10° 241° (WSW) 2,311 - -53.6°
Maximum altitude 22:49:49 26° 185° (S) 1,318 - -54.1°
Drops below altitude 10° 22:53:32 10° 128° (SE) 2,013 - -54.5°
Sets 22:56:03 0° 115° (ESE) 2,921 - -54.8°
